Wind_Speed
47 49 51 54 56 59 61 64 66 68 71 73 74 76 78 79 80 81 82 82 82 82 82 83 82 82 83 82 82 82 81 80 78 73 73 73 74 73 73 73 72 71 70
52 54 56 59 61 64 66 69 71 74 76 78 80 82 83 84 85 85 84 84 84 83 83 83 83 83 83 82 82 81 81 80 78 75 73 73 73 73 73 72 71 70 70
56 58 61 64 66 69 72 74 76 79 81 83 85 85 86 86 86 85 84 83 83 82 81 81 80 80 80 79 80 79 78 78 77 75 72 72 72 72 72 71 70 69 68
61 63 66 69 72 74 77 79 81 83 85 86 87 86 85 84 83 82 81 80 79 78 77 76 76 76 76 76 76 75 75 75 74 73 71 70 70 69 69 67 67 66 67
66 68 71 74 77 79 81 83 85 87 87 87 85 83 82 80 79 78 77 75 73 72 71 71 70 70 70 70 70 70 70 70 70 69 68 67 66 66 65 65 66 66 67
70 73 76 78 81 83 85 86 87 87 85 84 81 79 77 75 73 72 71 69 68 66 65 65 64 64 64 64 63 64 65 65 66 66 65 64 63 63 64 64 65 65 65
74 77 80 82 84 86 87 86 85 84 81 79 76 73 71 69 67 66 65 64 62 60 59 59 58 58 58 59 59 59 60 60 61 61 61 60 60 61 62 62 62 62 61
78 80 83 85 86 86 85 83 81 79 76 73 70 67 64 62 61 60 59 57 56 55 55 54 54 54 55 55 55 55 55 56 56 55 54 54 56 57 59 60 60 59 59
81 82 84 85 85 83 81 78 76 73 70 67 64 61 59 57 56 55 54 53 51 50 50 50 50 50 51 51 52 51 50 51 52 52 52 52 52 53 55 55 55 56 55
82 83 83 83 82 79 77 74 71 68 65 61 57 56 55 53 53 52 51 50 48 46 46 46 47 47 47 47 48 48 47 47 48 49 49 49 50 51 52 52 52 53 52
83 82 81 80 77 75 72 69 65 62 59 55 53 52 51 51 50 49 48 47 45 44 43 43 44 44 44 44 44 44 44 44 45 46 47 47 48 49 50 51 51 51 50
81 80 78 75 73 70 67 63 60 57 54 52 50 48 48 48 48 46 45 45 44 43 42 41 40 40 41 41 41 41 42 43 43 44 46 46 47 48 49 50 51 51 50
78 76 74 71 68 64 61 58 55 53 52 50 48 46 45 45 45 44 43 43 43 42 41 39 38 38 38 39 39 40 40 41 42 42 43 44 45 46 47 48 49 50 50
75 72 69 66 62 59 57 55 53 51 50 48 46 45 44 43 42 42 42 41 41 40 39 38 38 38 38 39 39 39 39 39 40 40 40 41 42 43 43 44 45 46 47
71 68 64 61 58 55 53 51 50 49 48 47 46 45 44 42 41 41 40 39 39 38 38 38 38 38 38 38 38 38 38 38 38 37 37 38 38 38 39 41 42 42 43
67 63 60 57 54 52 50 47 46 47 46 46 46 45 44 43 41 40 39 38 37 38 38 38 38 38 38 37 36 36 36 35 35 35 35 35 35 36 37 38 39 39 40
63 60 57 54 52 50 48 46 44 43 43 44 45 45 44 42 41 40 39 37 37 37 37 36 36 36 36 35 34 33 33 33 33 33 33 34 34 34 35 36 36 36 37
59 56 54 52 50 49 47 45 44 42 40 40 42 43 43 42 41 39 38 37 37 37 36 35 35 34 33 32 32 31 31 30 30 31 31 32 32 32 32 33 33 33 34
55 53 51 49 48 48 46 44 43 42 41 40 40 40 40 40 39 38 38 37 36 35 34 34 33 32 31 30 29 28 28 28 28 28 29 29 30 30 30 30 31 31 32
52 51 50 48 47 46 44 43 42 41 40 40 39 38 38 37 36 36 35 35 34 33 32 31 30 29 27 27 27 27 27 27 27 28 28 28 29 29 29 29 29 30 31
50 48 47 47 46 45 43 41 40 40 39 38 38 38 37 35 34 34 33 32 32 31 31 29 28 27 27 26 26 27 27 28 28 28 28 28 28 28 28 28 28 29 30
48 46 45 45 44 43 41 40 39 38 38 38 37 36 35 35 34 33 32 31 31 31 30 28 27 27 27 27 27 27 28 28 28 28 28 27 27 27 27 28 28 29 30
46 45 44 43 42 41 40 39 38 37 37 36 35 35 34 34 33 32 31 31 31 30 29 28 28 28 28 28 28 28 29 29 28 28 28 28 27 27 28 28 29 30 31
44 43 42 41 40 39 38 37 37 36 36 35 34 34 34 33 32 31 31 31 31 30 29 28 28 28 28 28 29 29 29 29 28 28 27 27 27 27 28 28 29 29 30
42 41 40 39 38 37 36 36 35 35 34 33 34 33 33 32 32 32 31 31 30 29 29 28 28 28 28 28 29 29 29 28 28 27 27 27 27 27 27 28 29 30 30
40 39 38 37 35 35 35 34 33 33 32 32 32 32 32 32 32 32 31 30 29 29 28 28 28 28 28 29 29 29 29 28 27 27 27 27 27 27 28 28 29 29 30
Wind_Direction
300 300 300 300 299 299 298 298 297 296 295 294 293 292 291 290 289 288 286 285 283 282 281 279 278 277 276 275 274 274 274 274 273 272 271 270 270 270 271 271 271 270 270
301 301 301 301 301 300 300 299 298 297 296 295 294 293 292 291 290 288 287 285 284 282 280 279 278 276 276 275 274 274 273 273 273 272 270 270 270 270 271 270 270 269 268
302 302 302 302 301 301 300 300 299 298 297 297 296 295 294 292 291 289 287 285 284 282 280 279 278 277 276 275 274 274 273 273 273 272 271 270 270 270 270 270 269 268 267
303 303 303 302 302 302 301 300 300 300 299 298 297 296 295 293 291 289 287 285 284 283 281 280 279 278 277 276 275 274 273 273 272 272 271 270 270 269 269 269 268 267 267
303 303 304 304 303 303 303 302 302 301 301 300 299 297 296 294 292 290 288 287 285 283 282 281 280 279 279 278 277 276 274 274 273 272 271 270 269 269 268 267 266 267 267
304 304 305 305 305 305 304 304 304 303 302 301 300 299 297 296 294 292 291 289 287 285 283 282 282 281 280 279 278 277 276 275 274 273 272 270 269 268 267 267 267 267 268
305 306 306 306 306 306 306 306 305 304 304 303 302 300 299 297 295 294 292 291 290 288 286 285 283 282 280 279 278 277 276 276 275 273 272 270 269 267 267 267 267 268 268
307 307 307 307 308 308 307 307 306 305 304 304 303 301 300 299 297 296 294 293 292 290 289 287 285 283 281 280 278 277 276 275 274 273 271 270 269 268 268 268 268 268 268
308 309 309 309 309 309 308 308 307 306 306 305 304 303 302 301 299 298 296 295 294 292 290 288 287 285 283 282 280 279 277 275 274 274 272 271 270 269 270 269 269 269 269
310 310 311 310 310 310 309 309 308 308 307 306 305 304 303 303 301 300 299 298 296 294 292 291 289 288 285 284 283 281 279 277 275 274 273 272 271 270 270 271 270 270 269
311 312 311 311 311 311 310 310 309 308 308 307 307 306 305 304 304 303 301 300 299 297 295 292 291 289 288 287 285 284 281 279 277 274 274 273 272 272 271 272 271 270 270
312 312 312 312 312 311 311 310 310 309 309 308 308 307 307 306 305 305 303 302 301 300 298 295 293 291 290 289 288 286 284 281 279 277 275 274 273 272 271 271 271 271 270
313 313 313 313 313 312 311 311 310 310 310 309 309 309 308 307 306 305 305 303 302 301 300 298 297 295 293 291 289 288 285 283 282 280 278 276 274 273 272 271 271 271 270
313 313 313 313 313 312 312 311 311 311 310 310 310 310 310 309 308 306 305 304 302 301 300 299 298 297 295 294 291 289 287 285 284 282 280 278 276 275 274 272 272 271 271
314 314 314 314 313 313 312 311 311 311 311 311 311 311 311 310 309 308 307 305 303 302 301 300 299 298 296 295 293 290 288 286 284 282 281 280 278 277 275 274 273 272 271
314 314 314 314 314 313 312 311 312 312 312 312 312 313 313 312 311 311 309 308 306 305 304 302 301 299 298 296 294 292 290 287 285 283 282 282 280 279 277 276 275 274 273
314 314 314 314 314 314 313 312 312 312 312 312 312 312 313 313 312 311 310 309 308 307 306 304 303 301 300 298 295 294 292 289 286 284 284 283 282 281 279 278 276 275 274
313 313 314 314 315 315 314 313 313 313 313 312 312 312 313 313 312 311 311 310 309 308 307 306 305 304 301 299 298 296 293 291 289 287 285 285 284 282 281 280 278 276 275
312 312 313 314 314 315 314 313 314 314 315 315 314 313 313 313 312 312 311 311 310 309 308 308 307 306 304 302 301 299 297 295 293 292 290 288 286 284 283 281 279 277 277
311 312 313 313 314 315 314 314 314 315 316 317 316 315 314 313 313 312 312 312 312 311 310 309 308 307 306 304 303 302 300 299 297 296 294 291 288 286 284 282 281 280 280
311 311 312 313 314 315 315 315 315 316 317 317 317 317 316 316 315 314 313 313 313 314 313 311 310 309 307 306 305 304 303 302 300 298 296 294 291 288 285 283 282 282 281
311 312 312 313 314 315 315 315 315 316 317 317 318 318 318 318 317 315 314 314 314 314 313 312 311 310 310 309 308 306 305 304 302 299 297 295 292 289 286 283 283 283 283
311 312 312 313 314 315 315 315 315 316 317 318 318 319 319 319 318 316 316 315 315 315 314 313 312 311 311 310 309 308 307 305 303 300 298 295 293 290 287 285 285 285 285
311 311 312 313 313 314 314 315 315 316 317 317 318 319 319 319 318 317 316 316 315 315 314 313 313 313 312 312 311 310 309 307 304 301 299 297 294 291 289 287 287 287 288
311 312 312 312 313 313 315 315 315 315 316 317 318 319 319 319 319 318 317 316 316 316 315 314 314 314 314 314 314 313 311 308 305 303 300 298 295 292 291 290 290 290 290
311 312 312 312 313 314 315 316 316 316 316 317 318 319 319 319 319 318 317 316 316 316 316 315 315 315 315 315 315 314 313 310 307 304 302 299 296 294 293 293 293 292 292
Height
5708 5704 5698 5693 5687 5681 5675 5668 5662 5655 5647 5640 5633 5625 5618 5610 5602 5595 5589 5583 5577 5572 5566 5560 5557 5552 5547 5544 5540 5538 5536 5533 5535 5546 5543 5541 5538 5536 5534 5533 5533 5534 5535
5696 5690 5685 5678 5672 5665 5658 5651 5643 5635 5627 5619 5611 5603 5594 5586 5578 5570 5563 5557 5551 5546 5540 5534 5531 5526 5522 5519 5516 5514 5513 5511 5510 5517 5520 5518 5516 5514 5513 5512 5512 5513 5514
5683 5676 5670 5663 5656 5648 5640 5631 5623 5614 5605 5596 5587 5578 5569 5560 5551 5543 5536 5530 5524 5519 5514 5509 5505 5500 5497 5494 5491 5490 5489 5487 5487 5490 5496 5495 5494 5493 5491 5490 5491 5491 5492
5668 5661 5654 5646 5638 5629 5620 5611 5601 5591 5582 5572 5562 5552 5543 5533 5525 5516 5509 5503 5498 5493 5488 5484 5480 5475 5473 5470 5467 5467 5465 5464 5464 5466 5471 5472 5471 5470 5469 5470 5469 5470 5471
5652 5644 5636 5628 5618 5609 5599 5589 5578 5568 5557 5546 5536 5527 5517 5507 5499 5491 5484 5479 5474 5469 5465 5460 5457 5453 5450 5447 5445 5445 5443 5442 5443 5444 5447 5448 5449 5448 5449 5448 5448 5449 5450
5636 5627 5618 5608 5598 5587 5577 5566 5554 5543 5532 5522 5511 5502 5493 5484 5475 5467 5460 5455 5451 5447 5444 5440 5436 5432 5429 5426 5425 5424 5423 5422 5422 5422 5424 5426 5428 5427 5427 5426 5427 5428 5431
5618 5608 5598 5587 5577 5565 5554 5542 5530 5519 5509 5499 5489 5479 5471 5463 5454 5447 5440 5434 5431 5427 5423 5420 5417 5414 5410 5408 5406 5404 5403 5402 5403 5403 5403 5406 5406 5406 5405 5407 5408 5409 5411
5599 5589 5577 5566 5555 5543 5531 5519 5508 5497 5487 5478 5469 5460 5451 5444 5436 5429 5422 5417 5413 5410 5405 5402 5399 5396 5393 5390 5388 5387 5385 5384 5382 5382 5385 5386 5386 5386 5386 5387 5388 5389 5391
5580 5569 5556 5544 5533 5521 5510 5498 5487 5477 5468 5459 5450 5442 5434 5428 5420 5413 5407 5402 5398 5394 5390 5386 5382 5380 5377 5373 5371 5370 5369 5367 5365 5364 5366 5367 5368 5368 5368 5369 5370 5371 5373
5561 5549 5536 5523 5511 5500 5489 5479 5468 5458 5450 5442 5434 5426 5419 5413 5406 5399 5392 5388 5384 5380 5376 5372 5368 5364 5361 5358 5355 5354 5353 5352 5350 5349 5350 5350 5351 5351 5351 5351 5353 5353 5355
5541 5529 5516 5504 5492 5481 5471 5461 5451 5442 5434 5427 5420 5413 5405 5398 5392 5385 5379 5374 5370 5366 5363 5359 5354 5350 5347 5344 5341 5339 5337 5336 5335 5334 5335 5335 5335 5335 5335 5335 5335 5336 5338
5523 5511 5499 5487 5475 5463 5454 5445 5436 5427 5420 5413 5407 5401 5394 5386 5379 5373 5367 5362 5356 5352 5349 5345 5341 5337 5334 5331 5328 5325 5323 5321 5320 5319 5319 5319 5319 5319 5319 5318 5318 5319 5320
5504 5493 5481 5471 5459 5448 5439 5430 5423 5414 5407 5400 5394 5388 5382 5375 5368 5361 5356 5350 5345 5340 5336 5332 5329 5325 5321 5318 5315 5312 5310 5308 5306 5305 5304 5304 5303 5303 5302 5302 5302 5302 5302
5487 5476 5465 5455 5446 5436 5426 5417 5410 5402 5395 5388 5382 5376 5370 5364 5357 5351 5345 5340 5334 5329 5325 5321 5317 5313 5309 5306 5303 5299 5297 5294 5292 5291 5290 5289 5288 5287 5287 5286 5286 5286 5286
5471 5460 5450 5441 5432 5424 5416 5407 5398 5391 5382 5376 5370 5364 5358 5353 5347 5340 5334 5329 5324 5319 5314 5310 5306 5302 5298 5294 5290 5287 5284 5282 5280 5278 5277 5276 5275 5274 5273 5272 5272 5271 5271
5455 5446 5437 5428 5419 5411 5404 5397 5389 5380 5373 5365 5358 5352 5346 5341 5335 5329 5323 5318 5313 5308 5303 5298 5294 5290 5286 5282 5279 5275 5272 5270 5268 5266 5265 5264 5262 5261 5260 5259 5258 5258 5258
5440 5431 5423 5415 5407 5399 5391 5385 5379 5373 5364 5356 5348 5342 5336 5330 5325 5319 5313 5308 5303 5297 5292 5288 5283 5279 5275 5271 5267 5264 5261 5259 5256 5255 5254 5252 5251 5249 5248 5247 5246 5245 5244
5427 5419 5411 5404 5396 5388 5380 5373 5367 5361 5356 5349 5341 5333 5326 5321 5315 5309 5303 5298 5293 5288 5283 5278 5273 5269 5265 5261 5257 5254 5251 5249 5247 5245 5243 5241 5240 5238 5237 5235 5234 5233 5233
5415 5407 5400 5393 5385 5377 5370 5363 5357 5350 5344 5338 5332 5325 5318 5312 5306 5300 5294 5289 5283 5279 5274 5269 5264 5259 5255 5252 5249 5245 5243 5240 5237 5235 5233 5231 5229 5228 5226 5225 5223 5222 5221
5404 5396 5388 5381 5374 5367 5360 5353 5347 5341 5334 5328 5322 5316 5309 5303 5298 5292 5286 5280 5275 5270 5265 5260 5255 5251 5247 5244 5241 5237 5234 5232 5229 5226 5224 5221 5219 5218 5216 5215 5213 5212 5210
5393 5386 5378 5371 5364 5357 5350 5344 5337 5331 5325 5319 5313 5307 5300 5294 5289 5284 5278 5273 5267 5262 5257 5252 5248 5244 5240 5236 5233 5230 5226 5223 5220 5217 5215 5212 5210 5208 5206 5205 5203 5202 5200
5381 5374 5368 5361 5354 5347 5341 5335 5328 5323 5317 5311 5305 5299 5292 5286 5281 5276 5270 5265 5260 5255 5250 5245 5241 5237 5233 5229 5225 5222 5218 5215 5211 5208 5206 5203 5201 5199 5197 5195 5193 5192 5190
5370 5364 5357 5351 5344 5338 5332 5326 5320 5314 5308 5302 5297 5291 5285 5279 5274 5268 5263 5258 5253 5248 5243 5238 5234 5230 5225 5221 5217 5214 5210 5206 5203 5199 5197 5194 5192 5189 5187 5185 5183 5181 5179
5359 5353 5347 5341 5335 5329 5323 5317 5311 5306 5300 5295 5289 5283 5278 5272 5267 5261 5256 5251 5246 5241 5236 5232 5227 5223 5218 5214 5210 5206 5202 5198 5194 5190 5187 5185 5182 5180 5178 5175 5173 5171 5169
5349 5343 5337 5331 5325 5320 5314 5309 5303 5298 5292 5287 5282 5276 5270 5265 5260 5254 5249 5244 5239 5234 5229 5225 5220 5216 5211 5207 5202 5198 5193 5189 5185 5182 5179 5176 5173 5170 5168 5166 5163 5161 5159
5339 5333 5328 5322 5316 5311 5306 5301 5295 5290 5285 5280 5274 5269 5263 5258 5253 5247 5242 5237 5232 5227 5222 5218 5213 5209 5204 5200 5195 5190 5185 5181 5177 5173 5170 5167 5164 5161 5159 5156 5153 5151 5148